TimeMDT,TemperatureF,Dew PointF,Humidity,Sea Level PressureIn,VisibilityMPH,Wind Direction,Wind SpeedMPH,Gust SpeedMPH,PrecipitationIn,Events,Conditions,WindDirDegrees,DateUTC
12:15 AM,46.4,21.2,37,30.19,10.0,NE,5.8,-,N/A,,Clear,50,2013-05-26 06:15:00
12:35 AM,48.2,24.8,40,30.20,10.0,North,3.5,-,N/A,,Clear,360,2013-05-26 06:35:00
12:55 AM,44.6,26.6,49,30.20,10.0,Calm,Calm,-,N/A,,Clear,0,2013-05-26 06:55:00
1:15 AM,42.8,30.2,61,30.20,10.0,Calm,Calm,-,N/A,,Clear,0,2013-05-26 07:15:00
1:35 AM,44.6,26.6,49,30.20,10.0,Calm,Calm,-,N/A,,Clear,0,2013-05-26 07:35:00
1:55 AM,42.8,26.6,53,30.20,10.0,Calm,Calm,-,N/A,,Clear,0,2013-05-26 07:55:00
2:15 AM,42.8,24.8,49,30.20,10.0,WNW,3.5,-,N/A,,Clear,290,2013-05-26 08:15:00
2:35 AM,44.6,24.8,46,30.20,10.0,Calm,Calm,-,N/A,,Clear,0,2013-05-26 08:35:00
2:55 AM,42.8,24.8,49,30.21,10.0,Calm,Calm,-,N/A,,Clear,0,2013-05-26 08:55:00
3:15 AM,39.2,21.2,49,30.21,10.0,Calm,Calm,-,N/A,,Clear,0,2013-05-26 09:15:00
3:35 AM,39.2,24.8,56,30.22,10.0,Calm,Calm,-,N/A,,Clear,0,2013-05-26 09:35:00
3:55 AM,39.2,23.0,52,30.22,10.0,Calm,Calm,-,N/A,,Clear,0,2013-05-26 09:55:00
4:15 AM,39.2,23.0,52,30.22,10.0,Calm,Calm,-,N/A,,Clear,0,2013-05-26 10:15:00
4:35 AM,37.4,23.0,56,30.23,10.0,Calm,Calm,-,N/A,,Clear,0,2013-05-26 10:35:00
4:55 AM,37.4,28.4,70,30.23,10.0,Calm,Calm,-,N/A,,Clear,0,2013-05-26 10:55:00
5:15 AM,37.4,24.8,60,30.23,10.0,Calm,Calm,-,N/A,,Clear,0,2013-05-26 11:15:00
5:35 AM,37.4,24.8,60,30.23,10.0,NNW,3.5,-,N/A,,Clear,340,2013-05-26 11:35:00
5:55 AM,37.4,21.2,52,30.24,10.0,Calm,Calm,-,N/A,,Clear,0,2013-05-26 11:55:00
6:15 AM,35.6,24.8,65,30.25,10.0,Calm,Calm,-,N/A,,Clear,0,2013-05-26 12:15:00
6:35 AM,35.6,26.6,70,30.25,10.0,Calm,Calm,-,N/A,,Clear,0,2013-05-26 12:35:00
6:55 AM,37.4,24.8,60,30.25,10.0,Calm,Calm,-,N/A,,Clear,0,2013-05-26 12:55:00
7:15 AM,39.2,24.8,56,30.25,10.0,Calm,Calm,-,N/A,,Clear,0,2013-05-26 13:15:00
7:35 AM,41.0,24.8,53,30.25,10.0,Calm,Calm,-,N/A,,Clear,0,2013-05-26 13:35:00
7:55 AM,42.8,24.8,49,30.26,10.0,Calm,Calm,-,N/A,,Clear,0,2013-05-26 13:55:00
8:15 AM,44.6,24.8,46,30.25,10.0,Calm,Calm,-,N/A,,Clear,0,2013-05-26 14:15:00
8:35 AM,46.4,24.8,43,30.25,10.0,Calm,Calm,-,N/A,,Clear,0,2013-05-26 14:35:00
8:55 AM,48.2,24.8,40,30.25,10.0,Calm,Calm,-,N/A,,Clear,0,2013-05-26 14:55:00
9:15 AM,51.8,23.0,33,30.25,10.0,Calm,Calm,-,N/A,,Clear,0,2013-05-26 15:15:00
9:35 AM,53.6,24.8,33,30.24,10.0,NNE,3.5,-,N/A,,Clear,20,2013-05-26 15:35:00
9:55 AM,55.4,24.8,31,30.23,10.0,NNW,3.5,-,N/A,,Clear,340,2013-05-26 15:55:00
10:15 AM,57.2,24.8,29,30.22,10.0,Calm,Calm,-,N/A,,Clear,0,2013-05-26 16:15:00
10:35 AM,59.0,24.8,27,30.21,10.0,East,4.6,-,N/A,,Clear,100,2013-05-26 16:35:00
10:55 AM,60.8,21.2,22,30.20,10.0,SSE,3.5,-,N/A,,Clear,150,2013-05-26 16:55:00
11:15 AM,64.4,21.2,19,30.19,10.0,WSW,4.6,-,N/A,,Clear,240,2013-05-26 17:15:00
11:35 AM,64.4,21.2,19,30.19,10.0,Calm,Calm,-,N/A,,Clear,0,2013-05-26 17:35:00
11:55 AM,66.2,19.4,17,30.17,10.0,West,6.9,-,N/A,,Clear,270,2013-05-26 17:55:00
12:15 PM,66.2,15.8,14,30.17,10.0,WSW,9.2,-,N/A,,Clear,240,2013-05-26 18:15:00
12:35 PM,69.8,15.8,13,30.16,10.0,West,6.9,-,N/A,,Clear,260,2013-05-26 18:35:00
12:55 PM,69.8,15.8,13,30.15,10.0,South,5.8,-,N/A,,Clear,170,2013-05-26 18:55:00
1:15 PM,69.8,15.8,13,30.14,10.0,SE,3.5,-,N/A,,Clear,130,2013-05-26 19:15:00
1:35 PM,69.8,17.6,14,30.13,10.0,SW,3.5,-,N/A,,Clear,220,2013-05-26 19:35:00
1:55 PM,71.6,17.6,13,30.12,10.0,NNE,3.5,-,N/A,,Partly Cloudy,20,2013-05-26 19:55:00
2:15 PM,71.6,17.6,13,30.11,10.0,South,5.8,-,N/A,,Clear,180,2013-05-26 20:15:00
2:35 PM,73.4,19.4,13,30.11,10.0,WSW,8.1,17.3,N/A,,Clear,240,2013-05-26 20:35:00
2:55 PM,73.4,17.6,12,30.11,10.0,WSW,5.8,-,N/A,,Clear,240,2013-05-26 20:55:00
3:15 PM,73.4,19.4,13,30.10,10.0,SW,15.0,19.6,N/A,,Clear,220,2013-05-26 21:15:00
3:35 PM,73.4,19.4,13,30.10,10.0,WSW,11.5,16.1,N/A,,Clear,240,2013-05-26 21:35:00
3:55 PM,73.4,19.4,13,30.09,10.0,WSW,13.8,19.6,N/A,,Clear,250,2013-05-26 21:55:00
4:15 PM,73.4,19.4,13,30.09,10.0,WSW,8.1,-,N/A,,Clear,240,2013-05-26 22:15:00
4:35 PM,73.4,19.4,13,30.09,10.0,WSW,16.1,20.7,N/A,,Clear,250,2013-05-26 22:35:00
4:55 PM,73.4,19.4,13,30.08,10.0,West,16.1,21.9,N/A,,Clear,260,2013-05-26 22:55:00
5:15 PM,73.4,19.4,13,30.08,10.0,West,12.7,19.6,N/A,,Clear,280,2013-05-26 23:15:00
5:35 PM,73.4,19.4,13,30.08,10.0,West,13.8,21.9,N/A,,Clear,260,2013-05-26 23:35:00
5:55 PM,73.4,19.4,13,30.07,10.0,WSW,11.5,-,N/A,,Clear,250,2013-05-26 23:55:00
6:15 PM,71.6,17.6,13,30.08,10.0,WSW,15.0,-,N/A,,Clear,240,2013-05-27 00:15:00
6:35 PM,71.6,17.6,13,30.08,10.0,WNW,18.4,21.9,N/A,,Clear,290,2013-05-27 00:35:00
6:55 PM,71.6,17.6,13,30.08,10.0,West,15.0,-,N/A,,Clear,280,2013-05-27 00:55:00
7:15 PM,69.8,15.8,13,30.09,10.0,West,11.5,18.4,N/A,,Clear,280,2013-05-27 01:15:00
7:35 PM,69.8,15.8,13,30.09,10.0,West,16.1,23.0,N/A,,Clear,280,2013-05-27 01:35:00
7:55 PM,68.0,14.0,12,30.10,10.0,West,12.7,17.3,N/A,,Clear,270,2013-05-27 01:55:00
8:15 PM,66.2,12.2,12,30.11,10.0,West,12.7,16.1,N/A,,Clear,280,2013-05-27 02:15:00
8:35 PM,64.4,10.4,12,30.12,10.0,West,8.1,-,N/A,,Clear,280,2013-05-27 02:35:00
8:55 PM,64.4,10.4,12,30.13,10.0,WNW,8.1,-,N/A,,Clear,290,2013-05-27 02:55:00
9:15 PM,62.6,10.4,13,30.14,10.0,WNW,6.9,-,N/A,,Clear,300,2013-05-27 03:15:00
9:35 PM,60.8,10.4,14,30.14,10.0,Calm,Calm,-,N/A,,Clear,0,2013-05-27 03:35:00
9:55 PM,57.2,14.0,18,30.15,10.0,Calm,Calm,-,N/A,,Clear,0,2013-05-27 03:55:00
10:15 PM,53.6,15.8,22,30.16,10.0,South,3.5,-,N/A,,Clear,170,2013-05-27 04:15:00
10:35 PM,53.6,17.6,24,30.16,10.0,Calm,Calm,-,N/A,,Clear,0,2013-05-27 04:35:00
10:55 PM,51.8,21.2,30,30.17,10.0,North,3.5,-,N/A,,Clear,360,2013-05-27 04:55:00
11:15 PM,50.0,17.6,28,30.17,10.0,Calm,Calm,-,N/A,,Clear,0,2013-05-27 05:15:00
11:35 PM,48.2,17.6,30,30.17,10.0,NE,3.5,-,N/A,,Clear,40,2013-05-27 05:35:00
11:55 PM,48.2,21.2,34,30.17,10.0,Calm,Calm,-,N/A,,Clear,0,2013-05-27 05:55:00